Weather History for K8D3 - May, 2012

Change the Weather History Date:

Thursday, May 3, 2012

  Actual Average Record
Temperature  
Mean Temperature 61 °F 53 °F  
Max Temperature 71 °F 65 °F 93 °F (1949)
Min Temperature 51 °F 40 °F 19 °F (2005)
Degree Days  
Heating Degree Days 4 13  
Month to date heating degree days 6 39  
Since 1 July heating degree days 6445 7998  
Cooling Degree Days 0 0  
Month to date cooling degree days 0 0  
Year to date cooling degree days 7 1  
Growing Degree Days 10 (Base 50)    
Moisture  
Dew Point 49 °F    
Average Humidity 67    
Maximum Humidity 89    
Minimum Humidity 44    
Precipitation  
Precipitation 0.08 in 0.08 in 1.27 in (1905)
Month to date precipitation 0.19 0.26  
Year to date precipitation 7.00 4.52  
Sea Level Pressure  
Sea Level Pressure 29.84 in    
Wind  
Wind Speed 10 mph (North)    
Max Wind Speed 29 mph    
Max Gust Speed 36 mph    
T = Trace of Precipitation, MM = Missing Value Source: NWS Daily Summary

Daily Weather History Graph

Daily Weather History Graph

Search for Another Location

Airport or City:

Trip Planner

Search our weather history database for the weather conditions in past years. The results will help you decide how hot, cold, wet, or windy it might be!

Date:

Astronomy

May. 03, 2012 Rise Set
Actual Time 6:11 AM CDT 8:38 PM CDT
Civil Twilight 5:38 AM CDT 9:11 PM CDT
Nautical Twilight 4:57 AM CDT 9:53 PM CDT
Astronomical Twilight 4:10 AM CDT 10:40 PM CDT
Moon 5:58 PM CDT (5/3) 4:24 AM CDT (5/3)
Length of Visible Light 15h 32m
Length of Day
14h 26m
Waxing Gibbous, 91% of the Moon is Illuminated
May 3
Waxing Gibbous
May 5
Full
May 12
Last Quarter
May 20
New
May 28
First Quarter

Hourly Weather History & Observations

Time (CDT) Temp. Dew Point Humidity Pressure Visibility Wind Dir Wind Speed Gust Speed Precip Events Conditions
12:56 AM 57.9 °F 52.0 °F 81% 29.68 in - WNW 8.1 mph - N/A   Unknown
1:56 AM 53.1 °F 48.0 °F 83% 29.71 in - North 8.1 mph - N/A   Unknown
2:56 AM 52.0 °F 46.9 °F 83% 29.71 in - NNW 10.4 mph - N/A   Unknown
3:56 AM 51.1 °F 46.9 °F 86% 29.71 in - NNW 11.5 mph - N/A   Unknown
4:56 AM 51.1 °F 46.0 °F 83% 29.72 in - NW 5.8 mph - N/A   Unknown
5:56 AM 52.0 °F 46.9 °F 83% 29.77 in - NE 16.1 mph - 0.07 in   Unknown
6:56 AM 52.0 °F 48.0 °F 86% 29.78 in - ENE 5.8 mph - 0.01 in   Unknown
7:56 AM 53.1 °F 48.9 °F 86% 29.80 in - SE 3.5 mph - N/A   Unknown
8:56 AM 55.9 °F 50.0 °F 80% 29.82 in - Calm Calm - N/A   Unknown
9:56 AM 60.1 °F 52.0 °F 75% 29.84 in - North 11.5 mph - N/A   Unknown
10:56 AM 62.1 °F 53.1 °F 72% 29.85 in - North 16.1 mph - N/A   Unknown
11:56 AM 64.0 °F 53.1 °F 67% 29.86 in - North 15.0 mph - N/A   Unknown
12:56 PM 66.0 °F 54.0 °F 65% 29.87 in - North 15.0 mph 26.5 mph N/A   Unknown
1:56 PM 66.9 °F 53.1 °F 61% 29.89 in - North 15.0 mph 21.9 mph N/A   Unknown
2:56 PM 69.1 °F 52.0 °F 54% 29.89 in - North 15.0 mph 24.2 mph N/A   Unknown
3:56 PM 70.0 °F 51.1 °F 51% 29.89 in - NNE 15.0 mph - N/A   Unknown
4:56 PM 70.0 °F 48.9 °F 47% 29.89 in - North 11.5 mph - N/A   Unknown
5:56 PM 69.1 °F 48.0 °F 47% 29.89 in - NE 12.7 mph - N/A   Unknown
6:56 PM 69.1 °F 46.0 °F 44% 29.89 in - NE 11.5 mph - N/A   Unknown
7:56 PM 66.0 °F 45.0 °F 47% 29.91 in - NE 9.2 mph - N/A   Unknown
8:56 PM 62.1 °F 48.0 °F 60% 29.93 in - NNE 4.6 mph - N/A   Unknown
9:56 PM 57.9 °F 48.0 °F 70% 29.95 in - North 3.5 mph - N/A   Unknown
10:56 PM 55.9 °F 46.9 °F 72% 29.94 in - North 3.5 mph - N/A   Unknown
11:56 PM 55.0 °F 46.9 °F 74% 29.94 in - NNW 3.5 mph - N/A   Unknown